Theta_e
311 311 310 311 311 311 311 310 310 310 311 311 312 313 313 313 313 306 302 305 301 295 296 298 299 296 295 293 288 290 287 289 289 285 284 282 284 285 285 287 285 285 283 285 285 286 286 296 298 292 295 298 297 297
310 310 310 311 310 310 310 310 309 310 311 312 312 313 313 313 313 309 303 309 307 299 296 298 300 303 302 300 295 294 289 292 292 287 287 287 285 286 286 282 291 285 287 285 286 286 294 297 297 297 299 298 298 298
310 310 310 310 310 310 310 309 309 310 311 312 312 313 313 313 313 308 302 306 302 296 292 292 294 299 302 304 304 293 295 298 294 294 290 288 286 287 282 285 288 290 292 286 288 292 295 297 300 302 301 301 302 301
309 310 310 310 310 309 309 309 309 310 311 312 312 312 312 313 314 308 301 300 296 292 287 292 301 298 302 300 302 302 300 301 297 291 288 288 286 290 286 287 288 291 292 288 289 294 297 298 300 301 302 303 303 303
309 309 309 309 309 309 309 309 309 310 311 312 312 312 312 312 313 307 307 301 299 297 291 290 295 299 300 298 298 298 296 292 292 289 288 286 290 287 290 289 287 295 292 289 289 295 295 296 300 302 301 301 303 303
309 309 309 309 309 308 308 308 309 310 310 312 312 313 313 312 311 306 299 299 301 298 295 290 294 293 297 298 296 296 295 293 292 289 288 290 292 289 285 285 292 296 299 299 295 299 300 301 302 303 302 303 304 304
308 308 309 309 309 308 308 308 309 310 310 311 311 311 312 311 307 303 298 301 304 298 291 295 294 297 301 295 293 294 294 293 292 291 288 289 289 290 287 284 293 297 299 299 300 300 298 300 299 303 304 304 306 306
308 308 309 309 308 308 308 308 309 310 310 311 311 310 310 309 306 300 303 306 303 295 292 288 293 298 301 296 293 292 289 290 292 292 292 289 290 289 285 292 296 297 300 299 298 300 299 300 301 301 303 303 301 303
308 308 309 309 309 309 308 308 309 310 311 311 311 311 305 302 298 300 309 307 300 296 293 294 284 291 297 296 294 290 289 287 289 289 290 289 286 285 288 293 295 297 298 298 299 299 299 298 298 298 299 299 300 302
308 308 308 309 309 309 308 308 308 310 310 310 304 302 299 301 311 307 299 299 299 298 296 292 296 292 296 296 296 295 295 288 287 290 293 288 285 293 295 295 297 298 299 298 297 295 297 297 297 298 297 298 298 298
308 308 308 309 308 308 308 308 309 310 307 301 300 301 301 309 300 301 299 294 293 290 294 294 297 293 298 292 295 297 293 291 284 289 288 280 286 291 295 295 297 299 301 299 298 301 300 299 297 298 298 298 298 298
308 308 308 307 307 307 307 307 309 304 302 303 302 303 300 298 297 291 289 291 289 290 293 294 295 296 296 295 294 294 290 287 282 289 282 276 289 292 293 295 296 297 300 300 300 299 298 299 299 299 299 298 298 298
307 307 308 307 307 307 309 310 309 308 306 303 302 299 296 294 286 286 283 287 287 290 292 291 291 296 298 295 296 295 287 284 288 281 281 285 289 292 292 294 295 296 300 300 299 300 300 299 299 298 297 298 299 299
307 307 308 307 307 307 309 310 310 309 302 301 301 288 291 288 290 289 290 289 292 291 292 290 291 294 294 295 289 287 287 286 281 272 276 286 289 292 293 294 294 293 295 299 299 299 299 299 298 299 300 300 299 298
307 307 307 307 308 310 310 310 310 305 304 301 297 287 291 294 293 293 293 291 293 291 291 292 291 290 288 288 287 286 284 279 278 278 284 289 291 292 293 292 292 291 293 297 299 299 299 299 298 297 298 299 299 299
307 307 308 309 309 309 309 309 307 306 306 303 298 294 293 291 292 292 291 291 291 291 291 290 288 288 286 286 285 285 282 277 282 285 289 290 291 292 291 292 293 291 292 293 297 299 299 299 298 297 298 297 297 298
307 304 309 308 308 308 309 307 309 308 305 298 296 296 294 293 294 293 292 293 292 291 288 288 285 284 287 284 284 284 281 284 286 287 288 289 291 292 291 290 292 292 292 294 296 298 298 299 299 298 296 296 297 298
300 306 308 308 307 306 308 307 307 305 300 299 297 300 296 296 294 294 294 293 291 290 289 288 288 284 284 284 283 285 286 287 287 287 288 289 290 289 290 289 291 292 292 291 291 291 292 296 294 293 293 295 296 292
303 305 307 308 307 303 306 308 306 300 301 299 298 298 297 297 297 295 297 294 292 292 291 289 287 284 285 286 288 288 287 287 288 289 289 290 290 289 290 290 291 291 290 289 289 288 289 290 290 290 291 290 290 291
307 309 309 309 308 307 307 306 306 301 300 299 298 297 297 297 296 300 299 299 295 293 291 289 288 289 290 291 291 290 289 289 289 288 289 290 291 289 289 288 289 289 289 289 289 290 289 290 289 290 290 290 291 291
309 311 310 307 306 307 306 303 300 301 299 298 298 298 299 299 298 299 298 294 292 293 292 292 293 295 294 293 292 291 292 291 290 290 290 290 291 288 288 289 289 289 289 289 288 288 289 289 289 289 290 291 291 292
307 312 310 310 310 309 306 306 300 299 299 300 300 299 297 297 298 299 300 296 294 294 296 298 299 297 297 296 296 295 298 296 292 292 293 291 288 288 288 288 289 290 290 290 289 289 289 289 289 290 291 291 291 292
311 310 311 312 307 297 298 304 300 301 298 299 300 297 297 298 302 305 300 299 298 300 300 298 298 300 298 300 298 297 298 296 293 288 288 288 287 287 288 288 288 289 289 289 289 290 291 290 291 291 291 291 292 292
310 309 306 305 300 296 302 299 301 299 298 297 295 294 297 299 304 299 296 297 298 299 298 299 303 302 300 297 296 295 296 296 294 291 291 288 287 288 287 287 287 288 289 289 289 289 290 291 291 291 292 292 292 291
298 298 298 290 299 298 299 300 299 298 295 297 295 296 296 300 294 294 293 296 297 298 299 299 301 298 296 295 294 294 296 293 290 290 289 288 288 288 287 288 288 287 289 290 290 291 292 293 293 292 292 291 291 291
292 301 295 300 301 299 299 296 297 297 297 296 297 298 296 294 293 293 295 297 298 299 300 300 299 298 296 291 290 291 293 292 290 290 288 288 289 289 287 288 291 291 291 289 291 292 292 292 292 292 292 292 290 292
293 299 299 302 302 302 299 299 300 297 296 296 297 297 295 292 292 295 298 299 300 301 301 300 299 298 296 294 292 293 292 291 291 290 289 291 292 292 293 294 289 290 291 292 293 293 292 292 291 291 291 291 292 293
303 303 300 301 301 300 298 298 298 297 298 300 300 297 297 296 296 299 300 302 303 301 297 293 291 291 290 289 290 290 289 290 291 292 292 290 290 291 292 292 293 292 294 292 292 293 292 292 292 292 292 291 292 292
302 305 304 301 300 300 300 299 300 301 302 300 299 298 299 302 304 302 302 301 296 293 291 290 290 290 290 290 289 289 288 290 292 290 288 286 287 290 292 295 297 297 294 294 292 293 294 293 294 293 293 292 292 291
300 304 301 301 301 300 302 303 302 303 303 303 303 302 301 300 303 301 294 292 291 289 289 289 288 288 287 287 286 287 287 287 288 289 287 286 288 290 293 294 293 295 296 293 292 293 292 293 293 294 293 291 291 291
302 302 301 302 300 301 303 304 304 304 304 303 302 300 297 299 298 294 293 290 290 290 289 288 288 288 287 286 286 285 285 287 287 289 289 289 290 291 292 292 293 293 292 292 291 291 291 291 292 292 291 291 291 291
303 302 301 298 299 303 304 302 302 301 301 300 300 303 303 299 293 294 294 291 290 290 291 289 289 288 287 287 287 287 287 287 287 288 288 288 288 289 289 289 290 291 291 290 290 290 291 290 290 290 289 290 290 290
304 303 303 301 299 300 302 301 300 299 299 299 299 303 303 298 293 293 294 293 292 290 289 289 288 287 288 288 288 288 288 288 289 289 289 288 288 288 288 289 290 290 290 290 290 290 290 290 289 289 289 289 289 289
Wind_Speed
10 12 16 17 17 19 20 18 15 14 13 13 12 11 9 6 0 4 1 3 1 1 4 1 3 3 2 2 3 6 6 3 2 3 3 3 3 4 2 4 6 5 4 3 3 7 2 18 6 8 3 2 9 9
12 14 17 18 17 19 19 17 15 13 14 13 11 9 7 3 4 4 2 2 2 1 5 2 5 5 4 2 2 3 2 3 3 3 3 4 3 5 7 3 5 3 3 2 1 3 8 10 5 6 4 5 5 6
12 15 18 18 17 18 17 16 14 14 14 12 8 6 5 2 6 4 2 2 1 2 5 3 2 1 3 5 4 1 2 4 3 0 3 2 3 4 5 5 4 6 6 1 4 4 9 3 8 8 6 8 5 5
14 16 17 18 18 18 17 16 14 13 12 9 7 5 3 4 8 5 2 1 3 3 1 5 2 2 2 4 2 3 4 4 4 3 3 3 4 6 5 4 3 2 6 4 4 6 6 7 10 9 11 9 8 4
14 17 16 18 18 16 16 14 13 12 10 7 7 5 2 6 9 3 1 3 2 1 2 4 5 1 1 4 7 7 5 4 3 4 3 4 3 5 3 3 3 9 6 5 3 10 6 8 12 15 11 8 8 8
14 16 16 16 18 16 15 14 12 11 7 7 6 2 7 9 8 2 2 1 2 2 0 4 2 2 2 6 8 7 4 3 3 3 3 3 2 4 4 4 13 16 12 11 8 14 8 11 13 13 8 7 6 7
15 16 16 14 16 15 14 13 11 9 5 5 2 1 5 9 2 2 4 2 5 3 1 3 3 2 3 3 3 2 4 3 3 1 2 3 3 5 3 5 14 15 14 17 15 12 11 14 10 14 13 12 10 8
15 14 14 13 15 15 14 12 10 8 5 5 2 2 4 6 1 1 1 6 4 3 2 1 4 1 5 2 1 0 2 2 3 1 1 2 3 2 4 13 12 12 13 14 17 15 13 14 17 17 14 14 12 10
15 14 14 12 12 13 13 12 10 7 6 4 4 2 2 1 1 2 6 6 2 3 1 1 2 3 2 1 2 1 2 3 1 2 2 1 3 4 5 8 11 9 9 11 12 12 14 17 17 18 18 19 16 14
15 14 14 12 13 13 13 11 9 9 5 4 2 1 2 2 4 5 2 1 1 1 0 3 2 3 2 1 2 3 1 2 2 1 2 3 3 4 5 6 5 7 6 8 10 16 16 14 15 16 18 15 15 14
15 15 14 13 14 12 11 9 7 3 4 1 1 1 1 1 2 1 2 1 1 3 3 4 4 3 0 1 1 0 3 2 3 1 1 2 3 4 6 7 7 6 5 6 6 7 10 12 14 14 15 16 15 16
15 16 15 15 13 11 10 7 4 2 2 2 2 3 2 1 2 2 3 2 1 4 2 3 3 5 2 2 2 1 3 2 2 1 4 3 4 4 6 6 7 4 3 5 6 7 8 9 9 8 8 11 13 14
17 16 15 16 13 11 10 8 10 6 2 1 1 1 3 1 6 3 4 5 4 4 3 2 3 2 0 1 2 1 4 1 2 4 2 5 4 5 4 5 7 5 3 3 4 4 3 3 5 6 7 8 8 10
18 18 16 17 13 11 11 7 8 6 2 2 2 5 2 4 3 5 5 5 6 4 4 1 2 2 2 2 1 4 1 3 3 4 4 3 4 6 6 2 2 5 4 2 3 3 2 3 4 5 4 4 6 7
20 20 19 13 7 10 10 5 11 2 2 1 2 2 4 4 3 4 3 3 4 1 1 0 1 2 3 4 3 3 2 2 4 5 4 4 5 6 6 5 6 5 2 5 3 2 1 3 3 4 4 4 4 4
22 18 2 5 8 11 1 11 3 2 1 2 2 1 2 1 4 3 2 4 1 3 0 3 3 4 4 1 3 1 2 4 4 3 4 3 4 5 5 5 6 4 3 3 5 4 3 4 3 3 5 4 4 4
16 3 3 10 15 11 13 2 3 4 3 3 4 2 2 2 5 3 3 4 2 3 2 2 3 1 1 2 1 3 4 3 3 4 2 3 4 6 6 5 6 4 2 0 0 3 3 3 3 2 5 5 5 4
4 3 10 12 12 2 3 3 2 1 4 3 2 3 3 3 3 3 4 2 2 2 3 2 4 3 2 2 3 4 3 3 3 3 4 4 4 5 4 6 5 1 1 2 3 3 3 1 3 3 4 5 5 5
10 14 20 15 5 1 1 2 2 3 5 2 3 2 2 3 4 1 0 2 2 2 5 2 3 3 3 4 4 3 3 3 3 2 3 5 5 5 5 5 3 2 3 2 3 3 2 2 1 1 2 3 2 3
17 12 10 5 8 1 1 3 1 1 3 4 2 3 3 3 1 1 0 2 2 1 1 2 3 3 4 4 4 4 4 4 3 1 3 4 2 3 4 3 1 2 2 2 3 2 3 3 3 3 2 3 3 4
6 1 3 2 2 1 2 2 3 4 2 2 2 1 3 2 3 4 3 1 2 1 1 2 3 3 4 2 3 3 4 5 4 4 3 3 3 3 4 3 2 2 2 1 2 2 3 2 2 2 2 3 3 3
3 3 1 1 1 0 2 2 2 2 1 3 4 3 3 4 4 3 3 3 2 2 1 1 2 4 2 2 2 4 1 5 2 1 1 2 2 3 2 2 2 2 2 1 2 2 1 2 1 2 3 3 4 4
6 1 2 1 1 2 6 1 0 2 2 4 4 4 3 3 3 5 2 1 2 2 2 2 2 4 2 2 3 3 4 3 2 2 2 1 1 2 2 3 3 2 2 3 1 2 2 3 4 3 3 4 4 5
2 2 1 1 2 4 3 2 2 3 3 4 4 3 4 3 3 3 3 2 3 3 3 4 3 3 3 1 0 2 3 3 4 3 2 5 2 2 2 2 1 1 1 1 3 3 3 4 4 3 3 4 5 4
4 3 3 4 1 1 2 3 3 4 2 2 3 3 3 3 3 2 2 4 3 3 3 3 3 2 1 4 3 3 1 3 4 4 1 4 3 2 3 3 3 3 3 2 3 3 3 3 3 4 3 4 5 6
1 4 4 3 1 2 1 1 1 2 0 2 2 2 3 3 3 4 2 3 3 3 3 4 3 4 3 2 2 2 1 3 2 3 1 3 4 4 3 3 5 4 4 3 1 4 3 3 4 5 4 5 6 5
1 4 3 2 2 3 2 1 2 1 1 2 1 1 2 3 2 3 3 2 2 3 3 3 1 0 3 2 2 2 3 3 2 3 4 4 4 5 1 1 1 1 3 4 3 1 3 4 4 4 4 3 3 3
6 3 5 1 2 2 3 2 4 4 3 3 3 2 3 2 3 3 3 2 1 2 3 4 5 5 5 5 4 4 4 2 4 6 8 8 6 5 8 7 5 9 5 4 3 4 3 3 3 4 5 3 2 3
4 3 3 3 3 3 6 6 4 4 5 5 5 4 2 2 1 1 3 3 2 4 5 5 5 3 7 8 8 7 6 4 3 6 6 4 4 4 2 5 2 1 3 3 6 5 3 2 3 4 4 4 3 3
4 4 3 2 4 5 4 5 4 3 2 2 3 2 2 2 3 1 2 2 3 4 3 4 3 5 4 5 4 6 6 6 5 3 3 3 2 2 0 4 4 2 2 2 3 3 7 3 4 4 5 4 3 4
3 3 2 3 3 2 3 3 3 3 3 2 1 2 3 2 2 2 3 2 3 4 5 5 5 4 5 4 4 4 5 6 5 6 5 4 3 3 4 3 2 2 3 4 3 3 3 4 4 4 4 4 4 5
4 6 4 3 2 1 2 2 2 2 1 2 1 2 2 3 1 2 1 3 3 4 3 4 5 3 3 3 4 4 5 3 4 4 5 4 4 4 3 3 3 3 4 4 4 4 5 5 3 4 5 6 6 5
1 2 3 4 3 3 4 4 2 2 2 2 2 3 3 4 4 4 1 1 3 5 5 4 4 5 5 5 6 5 5 4 5 7 9 8 7 5 3 3 3 4 5 5 5 5 5 7 6 5 5 5 5 5
Wind_Direction
331 329 322 322 321 325 323 330 332 335 334 332 331 331 331 331 241 127 242 173 156 228 291 257 285 276 289 235 301 320 345 345 320 328 313 311 298 349 4 47 132 161 196 165 199 222 217 352 338 69 78 5 321 323
327 325 319 316 324 326 329 330 334 334 329 328 326 328 330 344 148 125 120 107 147 248 262 249 260 248 249 239 287 319 271 286 345 318 331 316 340 330 329 61 6 71 25 11 262 336 324 308 340 77 29 285 325 305
324 319 315 318 325 326 329 331 335 335 330 332 329 336 349 60 151 124 141 137 104 357 297 1 316 307 237 225 185 262 311 328 327 53 313 323 348 321 359 29 352 4 34 360 325 347 348 310 82 23 351 316 312 301
320 316 316 320 326 330 330 331 336 333 332 340 339 335 349 101 150 133 140 186 102 129 43 291 347 55 20 45 191 219 310 318 303 27 15 5 338 360 350 318 342 338 303 315 243 3 5 222 351 346 331 308 306 303
317 313 320 324 325 332 332 334 339 335 338 349 332 313 177 140 148 134 172 203 171 87 261 283 311 145 23 87 73 52 45 38 13 15 4 20 348 341 323 288 5 350 358 6 343 331 290 276 300 311 307 296 298 326
316 314 326 325 327 331 332 335 340 339 342 345 341 83 145 149 144 113 334 274 189 123 73 321 270 209 33 26 29 36 55 65 60 29 359 338 315 330 346 1 341 354 357 357 357 345 341 314 290 308 304 312 308 321
315 319 321 328 330 330 329 333 339 335 333 340 320 100 180 161 123 167 190 215 144 104 96 288 316 190 148 75 14 34 7 52 77 62 20 338 333 350 350 11 342 343 354 9 9 348 14 10 9 3 356 339 325 319
310 320 322 332 332 330 326 330 335 333 315 319 271 52 139 150 61 339 287 125 113 94 92 272 274 161 172 123 145 52 83 38 18 37 334 337 317 348 21 340 355 346 343 15 11 15 22 26 27 19 4 1 9 5
314 325 321 328 325 325 321 323 329 328 301 269 213 150 77 55 37 264 153 115 85 124 246 228 195 280 128 134 134 72 124 73 328 34 342 14 320 42 281 329 339 349 357 354 12 15 20 36 40 31 24 17 13 6
319 326 322 326 325 319 309 307 318 319 304 161 85 76 325 322 143 105 15 281 195 174 187 236 166 274 120 222 169 139 143 130 99 15 293 37 323 287 327 319 323 341 356 354 26 21 15 23 23 39 33 24 18 13
321 326 323 326 323 313 302 295 294 307 35 45 107 207 255 310 39 310 302 352 266 267 197 232 224 265 198 99 145 59 116 106 88 56 111 353 315 288 328 340 339 343 8 18 12 29 27 22 26 28 38 36 28 20
322 325 322 328 319 308 292 275 231 160 201 181 149 104 86 51 25 9 295 324 313 264 235 202 239 202 245 126 137 214 115 96 104 268 74 356 252 278 333 333 328 338 51 48 38 27 25 35 29 23 23 40 42 36
323 323 321 320 312 299 285 255 207 187 69 123 106 97 61 300 25 74 323 307 317 287 261 342 297 166 83 36 58 66 67 105 109 51 154 235 266 290 312 334 335 357 137 99 66 57 49 14 354 6 5 354 23 45
322 319 319 311 296 286 280 270 192 168 159 158 132 339 128 311 245 199 207 223 242 231 289 237 239 186 181 116 130 71 21 81 62 39 258 264 256 288 309 306 332 341 310 147 128 124 78 9 349 347 349 333 334 25
321 320 319 295 256 280 293 245 163 165 156 190 113 285 235 255 265 253 239 303 259 243 336 55 36 99 14 68 30 84 53 6 174 220 232 249 280 295 304 328 331 340 327 203 223 258 322 345 18 357 348 354 5 351
325 325 89 30 337 331 77 124 151 185 189 170 194 257 241 352 286 311 273 274 338 330 67 40 61 52 33 54 42 26 90 227 246 217 239 274 276 293 294 309 310 318 287 261 201 200 230 273 300 321 327 337 0 354
324 230 44 13 357 346 169 125 163 211 225 207 257 200 173 243 232 236 191 248 239 63 41 66 56 211 206 75 315 165 200 227 237 265 266 248 263 287 305 320 313 336 334 352 66 222 227 269 301 318 308 300 330 345
245 275 339 345 346 289 170 203 237 226 255 235 216 232 206 196 218 252 235 230 88 138 124 164 124 67 154 217 248 241 234 250 245 262 280 289 293 303 302 293 299 253 32 54 41 11 8 266 311 317 321 326 341 357
276 288 294 304 292 336 80 239 155 243 248 248 272 269 229 249 239 22 279 73 69 118 109 68 121 182 222 207 217 216 223 210 235 274 271 280 292 304 322 319 290 112 88 89 75 61 20 352 354 57 45 28 28 0
292 288 279 235 182 99 318 289 93 204 262 254 265 256 219 217 192 187 175 69 109 122 103 183 213 208 199 213 189 188 189 177 163 322 297 304 301 351 360 319 315 157 118 64 54 67 36 43 42 31 44 44 37 11
320 159 108 192 96 112 192 261 277 213 266 238 251 220 266 341 11 20 36 314 62 357 296 241 279 239 193 217 182 171 181 161 192 188 220 299 329 330 329 336 1 118 113 134 107 53 44 16 350 357 50 39 10 12
271 317 130 171 37 21 278 244 211 281 299 266 353 14 4 19 1 352 273 45 281 261 231 194 155 275 319 270 222 202 140 159 204 264 258 245 329 351 346 319 3 69 176 196 100 117 360 347 39 96 58 31 12 28
323 67 341 17 346 40 262 38 329 347 305 296 3 38 21 24 356 314 19 51 296 311 292 274 280 180 205 274 219 206 141 143 142 132 136 113 48 80 33 18 43 36 12 17 323 174 125 49 99 96 72 56 41 31
333 22 13 335 136 260 341 341 3 357 3 16 21 19 7 332 354 10 319 308 272 295 316 317 327 7 341 328 48 239 163 138 155 217 179 126 154 92 41 328 357 73 65 82 71 29 53 72 53 67 68 71 50 42
50 310 86 301 241 307 286 348 4 37 352 347 7 357 350 348 358 335 314 289 309 310 310 324 332 21 320 304 332 342 102 152 166 193 159 128 115 89 31 5 24 15 3 74 111 128 132 140 110 104 88 82 77 63
118 247 145 217 245 186 229 277 256 244 233 4 360 32 31 32 332 298 277 274 289 305 330 329 319 327 4 78 325 12 199 166 82 60 2 124 118 101 117 70 28 326 18 333 152 101 78 65 76 81 65 52 70 77
257 261 235 215 137 113 73 51 84 121 203 175 159 72 12 316 289 271 287 271 287 317 297 307 357 197 272 293 194 211 115 124 139 143 144 149 139 155 176 128 137 23 0 12 22 75 125 109 95 87 82 68 61 79
223 218 190 176 151 166 158 204 202 191 183 173 102 173 225 198 262 258 240 265 271 338 39 42 46 56 46 30 29 57 49 100 114 97 81 61 59 80 71 69 43 18 16 21 24 55 83 106 102 92 88 78 26 12
231 226 148 237 180 198 209 194 206 201 166 152 160 204 213 181 231 299 305 345 42 109 77 67 29 31 59 51 45 41 29 20 1 60 78 93 102 70 93 84 69 6 345 10 37 38 48 77 89 86 91 90 52 40
253 162 176 221 193 229 245 162 165 146 148 157 123 76 55 36 340 338 51 28 95 98 90 81 53 65 66 78 63 45 28 25 35 81 112 117 136 199 280 88 94 118 300 42 66 40 30 49 56 57 56 72 76 70
143 145 217 220 248 297 165 116 78 89 89 85 72 126 128 139 24 19 62 48 81 92 89 83 67 57 82 69 71 64 35 9 31 61 81 93 93 80 72 78 99 120 81 77 77 74 83 72 74 79 74 72 59 68
162 198 183 192 244 76 131 82 118 92 86 88 59 86 91 74 103 289 240 109 91 89 92 121 113 93 88 94 80 72 85 87 58 57 72 81 72 60 57 54 62 72 71 63 66 75 81 88 76 68 81 81 82 81
256 187 165 121 120 208 223 120 94 98 85 130 177 177 162 153 188 218 343 50 161 157 151 131 114 112 112 102 105 94 77 81 85 79 78 83 97 95 75 62 64 69 76 69 60 62 66 82 83 82 81 77 74 71